{"data":{"norad_id":60282,"intl_designator":"2024-132E","name":"STARLINK-32113","alt_names":[],"object_type":"PAYLOAD","status":"ACTIVE","operator":null,"country":"US","launch_date":"2024-07-28","launch_site_code":"AFETR","launch_vehicle":null,"mission":null,"orbit_class":"UNKNOWN","rcs_meters":null,"size_class":null,"mass_kg":null,"dimensions":null,"purposes":["comms"],"wikipedia_slug":null,"has_3d_model":false,"image_url":null,"decayed_at":null,"tle_current":{"epoch":"2026-05-25T01:15:45.453024Z","epoch_age_seconds":67180,"freshness":"FRESH","line1":"1 60282U 24132E   26145.05260941  .00000092  00000+0  15237-4 0  9997","line2":"2 60282  53.1605  57.6085 0001134  86.2205 273.8926 15.30195126103254","mean_motion":15.30195126,"eccentricity":0.0001134,"inclination_deg":53.1605,"raan_deg":57.6085,"arg_perigee_deg":86.2205,"mean_anomaly_deg":273.8926,"bstar":1.5237e-5,"rev_number":10325,"period_min":94.105645452174,"perigee_km":474.45245056843,"apogee_km":476.00679411838,"semimajor_km":6853.3666223434,"source":"CELESTRAK","updated_at":"2026-05-25T13:38:19.204324Z"}}}